User: anonymous   Login
Location: Thompson
(55.7500°N, 97.8670°W)
Time: 17:50:50
(UTC-05:00)
Language:

Cosmos 1833 Rocket - Orbit

View from above orbital plane
View from above orbital plane
View from above satellite
View from above satellite

Ground track
Ground track

The orbit data is extracted from the following two-line orbital elements,

1 17590U 87027B   14304.44058226  .00000114  00000-0  80840-4 0  8178
2 17590 071.0056 010.8520 0006976 312.2741 047.7791 14.16659494428195
Epoch (UTC): 31 October 2014 10:34:26
Eccentricity: 0.0006976
inclination: 71.0056°
perigee height: 831 km
apogee height: 842 km
right ascension of ascending node: 10.8520°
argument of perigee: 312.2741°
revolutions per day: 14.16659494
mean anomaly at epoch: 47.7791°
orbit number at epoch: 42819

The dashed part of the orbit path shows where the satellite is in the earth's shadow,  

DLR